Weather in Matavla

Russia / Republic of Bashkortostan     56°04′14″N   57°34′45″E
temp.,
°C
wind,
m/s
gust,
m/s
humid.,
%
clouds,
%
prec.,
mm/h
press.,
hPa
HPBL,
m
15 august, mon
mon1523:00+14w116096 0.0 102210
02:00+10wsw11772 0.0 102210
05:00+9wsw11810 0.0 102310
08:00+13wnw016667 0.0 1023104
11:00+19nnw23485 0.0 1023938
14:00+22nw343922 0.0 10222211
17:00+21n44417 0.0 10221872
20:00+15nne22670 0.0 102338
16 august, tue
tue1623:00+11nne11740 0.0 102411
02:00+9ene11770 0.0 102510
05:00+8ne11810 0.0 102610
08:00+13ne01650 0.0 1026101
11:00+20nnw12442 0.0 1025805
14:00+22nw24365 0.0 10242127
17:00+22nnw34389 0.0 10242201
20:00+17wnw226859 0.0 102413
17 august, wed
wed1723:00+15wnw116620 0.0 102411
02:00+12nw1184100 0.0 102510
05:00+11nnw118594 0.0 102511
08:00+14n126639 0.0 1025136
11:00+19nne24435 0.0 10241152
14:00+22n34351 0.0 10231730
17:00+21n35385 0.0 10231736
20:00+16n116957 0.0 102210
18 august, thu
thu1823:00+12n117871 0.0 102310
02:00+13n117288 0.0 102216
05:00+11wnw009358 0.7 102211
08:00+13ne128988 0.0 1023135
11:00+18ne236244 0.0 1023854
14:00+20nne354421 0.0 10221825
17:00+21nne454063 0.0 10211910
20:00+15nne24637 0.0 102392
19 august, fri
fri1923:00+10ene11745 0.0 102411
02:00+8e22805 0.0 102517
05:00+7e11801 0.0 102714
08:00+11e13620 0.0 1028138
11:00+17e34410 0.0 10281083
14:00+19ene22340 0.0 10281739
17:00+20ne22344 0.0 10271887
20:00+14se11625 0.0 102811